Weather History for KMKL - April, 2014

Change the Weather History Date:

Thursday, April 17, 2014

  Actual Average Record
Temperature  
Mean Temperature 53 °F 60 °F  
Max Temperature 70 °F 73 °F 91 °F (1955)
Min Temperature 36 °F 48 °F 34 °F (1986)
Degree Days  
Heating Degree Days 12 6  
Month to date heating degree days 155 138  
Since 1 July heating degree days 4045 3466  
Cooling Degree Days 0 2  
Month to date cooling degree days 31 20  
Year to date cooling degree days 31 31  
Growing Degree Days 4 (Base 50)    
Moisture  
Dew Point 37 °F    
Average Humidity 57    
Maximum Humidity 85    
Minimum Humidity 28    
Precipitation  
Precipitation 0.00 in 0.16 in 2.25 in (1982)
Month to date precipitation 2.45 2.64  
Year to date precipitation 16.45 15.63  
Snow  
Snow 0.00 in 0.00 in - ()
Month to date snowfall T 0.1  
Since 1 July snowfall 1.3 4.7  
Snow Depth 0.00 in    
Sea Level Pressure  
Sea Level Pressure 30.24 in    
Wind  
Wind Speed 4 mph (SE)    
Max Wind Speed 21 mph    
Max Gust Speed 29 mph    
Visibility 10 miles    
Events      
T = Trace of Precipitation, MM = Missing Value Source: NWS Daily Summary

Daily Weather History Graph

Daily Weather History Graph

Search for Another Location

Airport or City:

Trip Planner

Search our weather history database for the weather conditions in past years. The results will help you decide how hot, cold, wet, or windy it might be!

Date:

Astronomy

Apr. 17, 2014 Rise Set
Actual Time 6:20 AM CDT 7:30 PM CDT
Civil Twilight 5:54 AM CDT 7:56 PM CDT
Nautical Twilight 5:22 AM CDT 8:28 PM CDT
Astronomical Twilight 4:50 AM CDT 9:01 PM CDT
Moon 10:11 PM CDT (4/17) 7:55 AM CDT (4/17)
Length of Visible Light 14h 02m
Length of Day
13h 10m
Waning Gibbous, 93% of the Moon is Illuminated
Apr 17
Waning Gibbous
Apr 22
Last Quarter
Apr 29
New
May 6
First Quarter
May 14
Full

Hourly Weather History & Observations

Time (CDT) Temp. Windchill Dew Point Humidity Pressure Visibility Wind Dir Wind Speed Gust Speed Precip Events Conditions
12:53 AM 37.9 °F 34.4 °F 33.1 °F 83% 30.20 in 10.0 mi SSE 4.6 mph - N/A   Clear
1:53 AM 39.0 °F - 34.0 °F 82% 30.20 in 10.0 mi Calm Calm - N/A   Clear
2:53 AM 37.9 °F - 34.0 °F 86% 30.21 in 10.0 mi Calm Calm - N/A   Clear
3:53 AM 39.9 °F - 34.0 °F 79% 30.22 in 10.0 mi Calm Calm - N/A   Clear
4:53 AM 37.0 °F - 33.1 °F 86% 30.23 in 10.0 mi Calm Calm - N/A   Clear
5:53 AM 39.9 °F - 33.1 °F 77% 30.25 in 10.0 mi Calm Calm - N/A   Clear
6:53 AM 45.0 °F 42.6 °F 34.0 °F 65% 30.27 in 10.0 mi Variable 4.6 mph - N/A   Clear
7:53 AM 51.1 °F - 35.1 °F 54% 30.30 in 10.0 mi South 9.2 mph - N/A   Clear
8:53 AM 55.0 °F - 37.0 °F 51% 30.32 in 10.0 mi South 9.2 mph 20.7 mph N/A   Clear
9:53 AM 59.0 °F - 37.9 °F 46% 30.32 in 10.0 mi South 8.1 mph 18.4 mph N/A   Clear
12:53 PM 64.9 °F - 37.9 °F 37% 30.28 in 10.0 mi Calm Calm - N/A   Clear
1:53 PM 66.9 °F - 39.0 °F 36% 30.26 in 10.0 mi ESE 6.9 mph - N/A   Clear
2:53 PM 69.1 °F - 37.0 °F 31% 30.25 in 10.0 mi ESE 8.1 mph 17.3 mph N/A   Clear
3:53 PM 69.1 °F - 36.0 °F 30% 30.23 in 10.0 mi South 4.6 mph - N/A   Clear
4:53 PM 70.0 °F - 37.0 °F 30% 30.22 in 10.0 mi Variable 3.5 mph - N/A   Clear
5:53 PM 68.0 °F - 37.0 °F 32% 30.21 in 10.0 mi ESE 6.9 mph - N/A   Clear
6:53 PM 66.0 °F - 37.0 °F 34% 30.21 in 10.0 mi ESE 3.5 mph - N/A   Clear
7:53 PM 64.0 °F - 36.0 °F 35% 30.22 in 10.0 mi Calm Calm - N/A   Clear
8:53 PM 57.9 °F - 37.9 °F 47% 30.24 in 10.0 mi Calm Calm - N/A   Clear
9:53 PM 53.1 °F - 41.0 °F 64% 30.25 in 10.0 mi Calm Calm - N/A   Clear
10:53 PM 52.0 °F - 43.0 °F 71% 30.24 in 10.0 mi Calm Calm - N/A   Scattered Clouds
11:53 PM 50.0 °F - 44.1 °F 80% 30.22 in 10.0 mi Calm Calm - N/A   Clear